Starlink 35178

operational
NORAD ID: 65610 Int'l Des: 2025-207 Owner: SPXS Country: US Constellation: starlink
NOTLE

Über Starlink 35178

Beschreibung wird geladen...

Live-Position

3D-Globus wird geladen...

Nächste Überflüge

Höhenverlauf

Altitude vs Time

uPlot chart will show altitude changes over time

Zweizeiliger Elementsatz

1 65610U 25207U 25354.91668981 -.02639230 00000-0 -11098+0 0 9996
2 65610 97.6032 60.9397 0001833 53.8462 273.4173 15.27191610 5942
Epoch: 20. Dez. 2025 • Age: 7 hours

Aktueller Status

Höhe 501.6 km
Geschwindigkeit 7.62 km/s
Subsatellitenpunkt 82.39°N, 175.49°E
Startdatum 13. Sept. 2025
Alter 0.2 years
Typ internet

Technische Details

Klassifizierung Payload
Masse 575.00 kg
Trockenmasse 530.00 kg
Gesamtmasse 575.00 kg
Länge 0.30 m
Durchmesser 4.10 m
Spannweite 29.00 m
Form Box + pan
Hersteller SPXS
Bus-Typ Starlink V2MO
Phasenstatus In Orbit
Besitzer/Staat SPXS/US

Große Konstellationen

Loading constellations...